Find Starlink 3139

NORAD ID: 49425 Int'l Des: 2021-104 Owner: SPXS Country: US Constellation: starlink operational
LEOCIRCULAR

当前视图

正在加载3D地球...

About Starlink 3139

Starlink 3139 (NORAD 49425) is a starlink constellation satellite (v1.5) launched Nov 13, 2021 by SPXS of US. It operates in LEO, CIRCULAR orbit with a mass of 290.00 kg.

即将过境

Passes for default location (London). Set your location on the main map for personalized predictions.

高度历史

Loading altitude history...

两行轨道根数

1 49425U 21104T 26263.05177653 -.00000788 00000-0 -13650-4 0 9999
2 49425 53.1613 62.9191 0001160 83.2818 276.8315 15.31691446268166
Epoch: Sep 20, 2026 • Age: 13 hours

当前状态

高度 473.2 km
远地点 / 近地点 N/A
速度 7.63 km/s
星下点 37.65°N, 113.74°W
发射日期 Nov 13, 2021
运行时间 4.8 years
类型 internet

技术详情

分类 Payload
质量 290.00 kg
干质量 270.00 kg
长度 0.20 m
跨度 9.00 m
形状 ? Box + pan
制造商 SPXS
平台类型 Starlink
阶段状态 In Orbit
所有者/国家 SPXS/US

Most Searched